Kalamazoo, MI

6:50 PM EDT on March 29, 2017 (GMT -0400)
Kalamazoo-Battle Creek International

Weather History for KAZO - January, 2009

Change the Weather History Date:

Thursday, January 15, 2009

  Actual Average Record
Temperature  
Mean Temperature 2 °F 24 °F  
Max Temperature 10 °F 31 °F 57 °F (1953)
Min Temperature -5 °F 18 °F -15 °F (1979)
Degree Days  
Heating Degree Days 62 41  
Month to date heating degree days 607  
Since 1 July heating degree days 3058  
Cooling Degree Days 0 0  
Month to date cooling degree days 0  
Year to date cooling degree days 0  
Moisture  
Dew Point -2 °F    
Average Humidity 75    
Maximum Humidity 87    
Minimum Humidity 61    
Precipitation  
Precipitation 0.00 in 0.05 in 0.68 in (1962)
Month to date precipitation 0.86  
Year to date precipitation 0.86  
Snow  
Snow 0.00 in - - ()
Snow Depth 12.00 in    
Sea Level Pressure  
Sea Level Pressure 30.44 in    
Wind  
Wind Speed 7 mph (WSW)    
Max Wind Speed 18 mph    
Max Gust Speed 26 mph    
Visibility 2 miles    
Events Snow    
T = Trace of Precipitation, MM = Missing Value Source: NWS Daily Summary

Daily Weather History Graph

Daily Weather History Graph

Search for Another Location

Airport or City:

Trip Planner

Search our weather history database for the weather conditions in past years. The results will help you decide how hot, cold, wet, or windy it might be!

Date:

Astronomy

Jan. 15, 2009 Rise Set
Actual Time 8:08 AM EST 5:35 PM EST
Civil Twilight 7:37 AM EST 6:06 PM EST
Nautical Twilight 7:02 AM EST 6:41 PM EST
Astronomical Twilight 6:29 AM EST 7:14 PM EST
Moon 11:24 PM EST (1/15) 10:33 AM EST (1/15)
Length of Visible Light 10h 29m
Length of Day
9h 27m
Waning Gibbous, 74% of the Moon is Illuminated
Jan 15
Waning Gibbous
Jan 17
Last Quarter
Jan 26
New
Feb 2
First Quarter
Feb 9
Full

Hourly Weather History & Observations

Time (EST) Temp. Windchill Dew Point Humidity Pressure Visibility Wind Dir Wind Speed Gust Speed Precip Events Conditions
12:53 AM 1.0 °F -6.7 °F -5.1 °F 75% 30.33 in 6.0 mi West 3.5 mph - N/A   Haze
1:53 AM -0.9 °F - -6.0 °F 79% 30.34 in 6.0 mi Calm Calm - N/A   Haze
2:44 AM -5.8 °F - -9.4 °F 84% 30.30 in 2.0 mi Calm Calm - 0.00 in Snow Light Snow
2:53 AM -4.0 °F - -9.0 °F 79% 30.37 in 2.5 mi Calm Calm - 0.00 in Snow Light Snow
3:07 AM -4.0 °F - -9.4 °F 78% 30.30 in 3.0 mi Calm Calm - 0.00 in   Haze
3:53 AM -5.1 °F - -9.9 °F 80% 30.38 in 5.0 mi Calm Calm - 0.00 in   Haze
4:26 AM -2.2 °F - -7.6 °F 78% 30.32 in 2.5 mi Calm Calm - N/A   Haze
4:38 AM -2.2 °F - -7.6 °F 78% 30.32 in 3.0 mi Calm Calm - N/A   Haze
4:53 AM -2.0 °F - -7.1 °F 79% 30.39 in 5.0 mi Calm Calm - N/A   Haze
5:53 AM 3.0 °F -6.4 °F -2.0 °F 80% 30.41 in 8.0 mi North 4.6 mph - 0.00 in Snow Light Snow
6:53 AM -0.0 °F - -5.1 °F 79% 30.43 in 4.0 mi Calm Calm - 0.00 in Snow Light Snow
7:53 AM -2.9 °F - -7.1 °F 82% 30.45 in 6.0 mi Calm Calm - 0.00 in Snow Light Snow
8:08 AM -2.2 °F - -7.6 °F 78% 30.38 in 6.0 mi Calm Calm - N/A   Haze
8:16 AM -0.4 °F - -7.6 °F 72% 30.38 in 5.0 mi Calm Calm - 0.00 in   Haze
8:53 AM -4.0 °F - -7.1 °F 87% 30.46 in 6.0 mi Calm Calm - 0.00 in   Scattered Clouds
9:53 AM 1.0 °F -6.7 °F -2.9 °F 83% 30.48 in 6.0 mi SSW 3.5 mph - N/A   Mostly Cloudy
10:53 AM 5.0 °F -4.1 °F 1.0 °F 84% 30.49 in 3.0 mi SW 4.6 mph - 0.00 in Snow Light Snow
11:33 AM 8.6 °F -2.6 °F 3.2 °F 79% 30.42 in 1.0 mi SSW 6.9 mph - 0.00 in Snow Light Snow
11:51 AM 8.6 °F 0.1 °F 3.2 °F 79% 30.41 in 2.0 mi SSW 4.6 mph - 0.00 in Snow Light Snow
11:53 AM 9.0 °F 0.6 °F 3.9 °F 80% 30.48 in 1.5 mi SSW 4.6 mph - 0.00 in Snow Light Snow
12:08 PM 10.4 °F -1.5 °F 3.2 °F 73% 30.40 in 1.5 mi WSW 8.1 mph - 0.00 in Snow Light Snow
12:17 PM 10.4 °F -2.4 °F 3.2 °F 73% 30.40 in 0.8 mi West 9.2 mph - 0.00 in Snow Light Snow
12:29 PM 10.4 °F -6.6 °F 3.2 °F 73% 30.40 in 0.5 mi NW 16.1 mph 20.7 mph 0.00 in Snow Snow
12:45 PM 8.6 °F -6.3 °F 3.2 °F 79% 30.40 in 0.8 mi WNW 11.5 mph - 0.00 in Snow Light Snow
12:53 PM 10.0 °F -7.1 °F 3.0 °F 73% 30.47 in 1.0 mi West 16.1 mph 21.9 mph 0.00 in Snow Light Snow
12:58 PM 10.4 °F -7.2 °F 1.4 °F 67% 30.40 in 2.0 mi West 17.3 mph 24.2 mph 0.00 in Snow Light Snow
1:07 PM 10.4 °F -6.0 °F 1.4 °F 67% 30.40 in 3.0 mi WNW 15.0 mph 26.5 mph 0.00 in Snow Light Snow
1:24 PM 10.4 °F -6.6 °F -0.4 °F 62% 30.40 in 4.0 mi West 16.1 mph 23.0 mph 0.00 in Snow Light Snow
1:53 PM 10.0 °F -7.6 °F -0.9 °F 61% 30.47 in 7.0 mi West 17.3 mph 23.0 mph 0.00 in Snow Blowing Snow
2:04 PM 10.4 °F -7.2 °F -0.4 °F 62% 30.40 in 1.8 mi West 17.3 mph 25.3 mph 0.00 in Snow Light Snow
2:12 PM 10.4 °F -6.6 °F 1.4 °F 67% 30.40 in 2.0 mi West 16.1 mph 23.0 mph N/A Snow Light Snow
2:21 PM 10.4 °F -7.7 °F 1.4 °F 67% 30.40 in 3.0 mi West 18.4 mph - 0.00 in Snow Blowing Snow
2:24 PM 10.4 °F -6.0 °F 1.4 °F 67% 30.40 in 0.8 mi West 15.0 mph 20.7 mph 0.00 in Snow Light Snow
2:43 PM 8.6 °F -7.0 °F -0.4 °F 67% 30.40 in 1.8 mi WNW 12.7 mph 20.7 mph 0.00 in Snow Light Snow
2:48 PM 10.4 °F -4.8 °F 1.4 °F 67% 30.40 in 3.0 mi NW 12.7 mph 20.7 mph 0.00 in Snow Light Snow
2:53 PM 10.9 °F -5.4 °F -0.0 °F 61% 30.47 in 6.0 mi West 15.0 mph 20.7 mph 0.00 in Snow Blowing Snow
3:01 PM 10.4 °F -7.7 °F -0.4 °F 62% 30.40 in 2.5 mi West 18.4 mph 26.5 mph N/A Snow Blowing Snow
3:12 PM 10.4 °F -5.4 °F -0.4 °F 62% 30.40 in 4.0 mi West 13.8 mph 26.5 mph N/A Snow Blowing Snow
3:24 PM 10.4 °F -7.7 °F -0.4 °F 62% 30.40 in 2.0 mi West 18.4 mph - 0.00 in Snow Light Snow
3:37 PM 8.6 °F -8.3 °F 1.4 °F 73% 30.41 in 0.8 mi West 15.0 mph - 0.00 in Snow Light Snow
3:53 PM 9.0 °F -7.9 °F 1.0 °F 70% 30.49 in 1.2 mi West 15.0 mph - 0.00 in Snow Light Snow
4:27 PM 8.6 °F -5.5 °F 1.4 °F 73% 30.43 in 0.8 mi West 10.4 mph - 0.00 in Snow Light Snow
4:34 PM 8.6 °F -6.3 °F 1.4 °F 73% 30.43 in 0.5 mi West 11.5 mph - 0.00 in Snow Snow
4:44 PM 8.6 °F -4.7 °F 1.4 °F 73% 30.43 in 0.8 mi West 9.2 mph - 0.00 in Snow Light Snow
4:53 PM 8.1 °F -7.7 °F 1.0 °F 73% 30.51 in 1.2 mi West 12.7 mph 19.6 mph 0.00 in Snow Light Snow
5:22 PM 6.8 °F -6.9 °F 1.4 °F 79% 30.44 in 0.5 mi West 9.2 mph - 0.00 in Snow Snow
5:44 PM 6.8 °F -9.3 °F -0.4 °F 72% 30.45 in 1.0 mi West 12.7 mph - 0.00 in Snow Light Snow
5:53 PM 6.1 °F -9.5 °F -0.0 °F 76% 30.52 in 1.2 mi West 11.5 mph - 0.00 in Snow Light Snow
6:21 PM 5.0 °F -10.0 °F -0.4 °F 78% 30.45 in 2.0 mi West 10.4 mph - 0.00 in Snow Light Snow
6:29 PM 5.0 °F -10.8 °F -0.4 °F 78% 30.45 in 1.5 mi West 11.5 mph - 0.00 in Snow Light Snow
6:34 PM 5.0 °F -10.0 °F -0.4 °F 78% 30.45 in 2.0 mi WSW 10.4 mph - 0.00 in Snow Light Snow
6:48 PM 5.0 °F -10.0 °F -0.4 °F 78% 30.46 in 1.0 mi WSW 10.4 mph - 0.00 in Snow Light Snow
6:49 PM 5.0 °F -10.0 °F -0.9 °F 76% 30.53 in 1.0 mi WSW 10.4 mph - 0.00 in Snow Light Snow
7:04 PM 5.0 °F -10.0 °F -0.4 °F 78% 30.46 in 2.0 mi WSW 10.4 mph - 0.00 in Snow Light Snow
7:11 PM 5.0 °F -10.8 °F -0.4 °F 78% 30.46 in 1.5 mi WSW 11.5 mph - 0.00 in Snow Light Snow
7:22 PM 3.2 °F -10.3 °F -0.4 °F 85% 30.46 in 1.2 mi WSW 8.1 mph - 0.00 in Snow Light Snow
7:33 PM 5.0 °F -10.8 °F -0.4 °F 78% 30.46 in 1.0 mi WSW 11.5 mph - 0.00 in Snow Light Snow
7:46 PM 5.0 °F -9.1 °F -0.4 °F 78% 30.46 in 1.2 mi WSW 9.2 mph - 0.00 in Snow Light Snow
7:53 PM 5.0 °F -10.0 °F -0.0 °F 80% 30.53 in 1.0 mi WSW 10.4 mph - 0.00 in Snow Light Snow
8:01 PM 5.0 °F -10.0 °F -0.4 °F 78% 30.46 in 0.5 mi WSW 10.4 mph - 0.00 in Snow Snow
8:25 PM 1.4 °F -14.5 °F -2.2 °F 85% 30.47 in 0.5 mi SW 10.4 mph - 0.00 in Snow Snow
8:53 PM -0.0 °F -17.1 °F -6.0 °F 76% 30.56 in 0.5 mi SW 11.5 mph - 0.00 in Snow Snow
9:53 PM -2.0 °F -20.5 °F -8.0 °F 76% 30.57 in 0.8 mi WSW 12.7 mph - 0.00 in Snow Light Snow
10:29 PM -2.2 °F -18.0 °F -7.6 °F 78% 30.49 in 0.5 mi SW 9.2 mph - 0.00 in Snow Snow
10:40 PM -2.2 °F -16.8 °F -7.6 °F 78% 30.49 in 0.8 mi SW 8.1 mph - 0.00 in Snow Light Snow
10:53 PM -2.0 °F -16.6 °F -7.1 °F 79% 30.57 in 1.0 mi SW 8.1 mph - 0.00 in Snow Light Snow
11:11 PM -2.2 °F -16.8 °F -7.6 °F 78% 30.49 in 0.8 mi SSW 8.1 mph - 0.00 in Snow Light Snow
11:26 PM -2.2 °F -18.9 °F -7.6 °F 78% 30.49 in 0.5 mi SSW 10.4 mph - 0.00 in Snow Snow
11:44 PM -2.2 °F -20.7 °F -7.6 °F 78% 30.49 in 0.8 mi SSW 12.7 mph - 0.00 in Snow Light Snow
11:53 PM -2.9 °F -19.8 °F -8.0 °F 79% 30.56 in 0.5 mi SSW 10.4 mph - 0.00 in Snow Snow